Showing default

TIMATION 1, 2847

Orbit data source: Space-Track

TIMATION 1, 2847 is a payload satellite owned by NRL (US) in LEO that was launched on Wed, 31 May 1967 UTC via a THOR SLV-2 AGENA D launch vehicle from the Air Force Western Test Range (AFWTR). Payloads include a variety of satellites, spacecraft, and rockets equipped with specific instruments for various scientific and technological missions. These include communications satellites like Starlink; space stations such as the ISS; scientific satellites like the Hubble; Earth observation satellites from companies like Planet Labs, Umbra, and HawkEye 360; GPS; miniature CubeSats for education and research; and military/defense satellites.

Loading next visibility...
TIMATION 1 details
Identifier
2847, 1967-053E
Orbit
LEO
Last TLE update18 hours ago
Origin
Flag of USNRL (US)
ManufacturerNRL
MissionDefense Navigation
Bus & MotorTIMATION, Unknown motor
Mass39 kg wet, 39 kg dry
Launch date (UTC)
1967-05-31 (58 years ago)
Launch vehicle
THOR SLV-2 AGENA D
Launch site
Air Force Western Test Range (AFWTR)
Object type
Payload
Rocket body
Debris
Shape & HBRBox, 0.8 m
Radar Cross Section0.285 m², Medium (>0.1 m² and < 1m²)

Expand to show TLE details & history

TLE from 18 hours ago
0 TIMATION 1
1 02847U 67053E   24355.81409635  .00000466  00000-0  33727-3 0  9998
2 02847  69.9656 304.0793 0003972  26.7889 333.3425 14.02630010937583
Epoch: 2024-12-20T19:32Z
Definitive object data (Epoch: 2024-12-20T19:32:17.924Z)
Latitude0.00003°
Longitude-78.86958°
Altitude884.441 km
Speed7.412 km/s
True Right ascension20h 16m 19s
True Declination0° 00' 00"
Sunlit
Object was in daylight at TLE epoch
Visualization TLE readout
Latitude-63.81828°
Longitude-128.07877°
Altitude908.905 km
Speed7.397 km/s
Apparent Right ascension22h 21m 25s
Apparent Declination-68° 04' 50"
Sunlit
Object is in daylight
Visualization observer readout
Local Sidereal Time13:03:14
Azimuth155.409° SSE
Elevation-54.404°
Doppler factor1
Orbital elements
Apogee altitude885.627 km
Perigee altitude879.858 km
Semi-major axis7,260.88 km
Eccentricity0.0003972
Inclination69.9656°
RAAN304.0793°
Arg. of periapsis26.7889°
True anomaly333.32207°
Mean anomaly333.3425°
Eccentric anomaly333.33229°
Mean motion3.508 °/min
BSTAR0.00033727
Orbital period102.62 mins
Loading maneuver chart data...
Loading historical data...
Loading historical data...
Loading historical data...
Loading historical data...
Loading historical data...
Loading historical data...
Loading historical data...

TIMATION 1 Visibility forecast

Observer location: undefined°, undefined

Span
Click to sort rows by Start time (UTC) header in descending order
Start Az.
Max El. time (UTC)
Max El. Az.
Max El.
End time (UTC)
End Az.
9 mins2024-12-21 21:19:10.712Z167.26° S2024-12-21 21:24:10.712Z101.183° ESE29.79°2024-12-21 21:28:10.712Z47.377° ENE
9 mins2024-12-21 23:05:10.712Z246.612° WSW2024-12-21 23:09:10.712Z306.102° NW29.559°2024-12-21 23:14:10.712Z7.466° NNE
6 mins2024-12-22 06:20:10.712Z18.363° NNE2024-12-22 06:23:10.712Z58.342° ENE20.159°2024-12-22 06:26:10.712Z93.446° ESE
9 mins2024-12-22 08:04:10.712Z324.668° NNW2024-12-22 08:08:10.712Z253.503° W41.409°2024-12-22 08:13:10.712Z172.344° S
|